Home   Weather   Carrollton   Past weeks

Flag for USA Past Weather in Carrollton, Texas, USA — Yesterday and Last 2 Weeks

Now
78 °F

Light rain. Mostly cloudy.


Feels Like: 81 °F
Forecast: 70 / 83 °F
Wind: No wind

Location: Dallas Love Field

Current Time: Sep 25, 2016 at 5:32:21 PM

Latest Report: Sep 25, 2016 at 4:53 PM


Visibility: 10 mi

Pressure: 29.99 "Hg

Humidity: 84%

Dew Point: 73 °F

Location of CarrolltonLocation

Past Weather in Carrollton — Graph

°F

Carrollton Temperature Yesterday

Maximum temperature yesterday: 90 °F (at 2:53 PM)
Minimum temperature yesterday: 78 °F (at 5:01 AM)
Average temperature yesterday: 83 °F

High & Low Weather Summary for the Past Weeks

 TemperatureHumidityPressure
High98 °F (Sep 18, 4:53 PM)88% (Sep 25, 10:59 AM)30.19 "Hg (Sep 25, 10:59 AM)
Low66 °F (Sep 11, 3:53 AM)31% (Sep 22, 2:53 PM)29.85 "Hg (Sep 16, 4:53 PM)
Average84 °F59%29.98 "Hg
* Reported Sep 10 3:53 PM — Sep 25 3:53 PM, Carrollton, Weather by CustomWeather, © 2016

Note: Actual official high and low records may vary slightly from our data, if they occured in-between our weather recording intervals... More about our weather records

Advertising

Carrollton Weather History for the Previous 24 Hours

Scroll right to see more
 ConditionsComfort  
Time TempWeatherWind HumidityBarometerVisibility
3:53 PM
Sun, Sep 25
79 °FLight rain. Cloudy.6 mph84%29.99 "Hg10 mi
2:53 PM79 °FLight rain. Mostly cloudy.5 mph84%30.00 "Hg10 mi
2:03 PM79 °FMostly cloudy.3 mph84%30.02 "Hg10 mi
1:53 PM78 °FCloudy.6 mph84%30.00 "Hg10 mi
12:53 PM78 °FCloudy.7 mph82%30.00 "Hg10 mi
11:53 AM77 °FCloudy.9 mph88%30.02 "Hg10 mi
10:59 AM77 °FLight rain. Cloudy.9 mph88%30.04 "Hg10 mi
9:53 AM79 °FCloudy.5 mph84%30.00 "Hg10 mi
9:04 AM78 °FLight rain. Low clouds.6 mph87%30.02 "Hg10 mi
8:53 AM78 °FLight rain. Overcast.7 mph87%30.00 "Hg8 mi
7:53 AM78 °FLight rain. More clouds than sun.7 mph82%29.98 "Hg10 mi
6:53 AM77 °FMostly cloudy.5 mph85%29.98 "Hg10 mi
5:53 AM77 °FMostly cloudy.7 mph85%29.97 "Hg10 mi
4:53 AM78 °FMostly cloudy.6 mph82%29.97 "Hg10 mi
4:02 AM78 °FMostly cloudy.6 mph82%29.98 "Hg10 mi
2:53 AM79 °FMostly cloudy.14 mph77%29.94 "Hg10 mi
1:53 AM79 °FMostly cloudy.9 mph77%29.94 "Hg10 mi
12:53 AM80 °FMostly cloudy.9 mph74%29.94 "Hg10 mi
11:53 PM
Sat, Sep 24
80 °FPartly cloudy.10 mph76%29.96 "Hg10 mi
10:53 PM79 °FOvercast.9 mph82%29.94 "Hg10 mi
9:53 PM80 °FMostly cloudy.8 mph81%29.92 "Hg10 mi
8:53 PM78 °FThunderstorms. Mostly cloudy.5 mph84%29.92 "Hg7 mi
7:59 PM87 °FThunderstorms. Partly cloudy.13 mph57%29.91 "Hg10 mi
6:53 PM88 °FPartly sunny.17 mph55%29.87 "Hg10 mi
5:53 PM90 °FPartly sunny.16 mph52%29.86 "Hg10 mi
Weather by CustomWeather, © 2016

See weather overviewHow to use our weather pages